Location: Newark
(5.8900°S, 42.6378°W)
Time: 08:11:49
(UTC+00:00)

deb Explorer IX - Pass Details

Date: 31 October 2019
Orbit: 546 x 1105 km, 38.8° (Epoch: 13 November)

Event Time Altitude Azimuth Distance (km) Brightness Sun altitude
Rises 21:32:35 0° 281° (W) 3,698 ? -12.6°
Reaches altitude 10° 21:35:41 10° 268° (W) 2,824 ? -13.3°
Maximum altitude 21:41:15 25° 215° (SW) 2,014 ? -14.6°
Drops below altitude 10° 21:47:05 10° 162° (SSE) 2,963 ? -16.0°
Sets 21:50:26 0° 149° (SSE) 3,917 ? -16.8°
